Location: Ethel Rock
(53.4667°N, 4.5667°W)
Time: 05:13:32
(UTC+00:00)

Cosmos 1484 Rocket - Pass Details

Date: 24 October 2020
Orbit: 504 x 560 km, 97.4° (Epoch: 25 November)

Event Time Altitude Azimuth Distance (km) Brightness Sun altitude
Rises 06:03:19 0° 6° (N) 2,732 6.4 -9.4°
Reaches altitude 10° 06:05:39 10° 356° (N) 1,824 5.4 -9.1°
Maximum altitude 06:09:04 29° 296° (WNW) 1,013 3.6 -8.6°
Drops below altitude 10° 06:12:24 10° 235° (SW) 1,783 5.0 -8.1°
Sets 06:14:40 0° 224° (SW) 2,658 6.0 -7.8°
